Regional Weather Roundup
Issued by NWS

Home | Current Version | Previous Version | Graphics & Text | Print | Product List | Glossary Off
Versions: 1 2 3 4 5 6 7 8 9 10 11 12 13 14 15 16 17 18 19 20 21 22 23 24 25 26 27 28 29 30 31 32 33 34 35 36 37 38 39 40 41 42 43 44 45 46 47 48 49 50

000
ASUS43 KMPX 011510
RWRMN
WEATHER ROUNDUP FOR MINNESOTA
NATIONAL WEATHER SERVICE TWIN CITIES/CHANHASSEN MN
1000 AM CDT MON SEP 01 2014


NOTE: "FAIR" INDICATES FEW OR NO CLOUDS BELOW 12,000 FEET WITH NO
SIGNIFICANT WEATHER AND/OR OBSTRUCTIONS TO VISIBILITY. N/A MEANS
CURRENT SKY AND/OR WEATHER CONDITIONS ARE NOT AVAILABLE.

MNZ060>063-068>070-011600-
   Twin Cities Metro

CITY           SKY/WX    TMP DP  RH WIND       PRES   REMARKS
TWIN CITIES    PTSUNNY   70  64  81 NW8       29.68R
ST PAUL        CLOUDY    70  64  81 NW7       29.68R
CRYSTAL        CLOUDY    70  62  76 NW6       29.68R
BLAINE         PTSUNNY   70  66  88 W6        29.68R
LAKEVILLE      PTSUNNY   68  64  88 W7        29.69R
EDEN PRAIRIE   CLOUDY    70  63  78 W9        29.69R
SOUTH ST PAUL  MOSUNNY   71  62  71 NW6       29.67R
LAKE ELMO      FAIR      68  64  88 W6        29.68R
$$
MNZ001>005-007-008-013>017-022>024-027-028-011600-
   Northwest Minnesota

CITY           SKY/WX    TMP DP  RH WIND       PRES   REMARKS
BEMIDJI        PTSUNNY   61  54  76 NW14      29.68S
HALLOCK        SUNNY     61  55  82 SW3       29.68S
ROSEAU         SUNNY     63  55  77 W8        29.67S
WARROAD        CLOUDY    61  55  82 W9        29.67S
THIEF RVR FALL PTSUNNY   59  55  88 W6        29.71S
CROOKSTON      CLOUDY    57  57 100 CALM      29.71S
FOSSTON        MOSUNNY   61  55  82 NW10      29.71S
DETROIT LAKES  CLOUDY    59  55  88 NW9       29.73S
MOORHEAD       SUNNY     64  63  94 W6        29.73S
PARK RAPIDS    MOSUNNY   63  53  70 NW16      29.70R
MAHNOMEN       CLOUDY    56  56  99 NW6       29.72S FOG
$$
MNZ006-009>011-018-025>026-011600-
   North Central Minnesota

CITY           SKY/WX    TMP DP  RH WIND       PRES   REMARKS
BAUDETTE       CLOUDY    60  55  83 NW9       29.64S
FLAG ISLAND    MOSUNNY   59  54  82 NW14      29.63S
INTL FALLS     CLOUDY    62  58  86 NW14      29.61S
WASKISH        CLOUDY    61  55  82 W8        29.66R
BIG FORK       MOSUNNY   63  55  77 W9        29.65R
LONGVILLE      PTSUNNY   63  57  82 NW7       29.67R
GRAND RAPIDS   CLOUDY    61  54  77 NW15      29.66R
CRANE LAKE     CLOUDY    61  57  88 NW5       29.62R
ORR            CLOUDY    61  57  88 W8        29.60R
COOK           CLOUDY    61  57  88 W7        29.62S
WALKER         FAIR      62  54  75 NW8G16    29.69R
$$
MNZ012-019>021-037-011600-
   Northeast Minnesota

CITY           SKY/WX    TMP DP  RH WIND       PRES   REMARKS
DULUTH         PTSUNNY   64  57  78 NW9       29.64R
ELY            CLOUDY    61  57  88 W7        29.60R
HIBBING        CLOUDY    62  56  80 NW12G20   29.63R
EVELETH        CLOUDY    59  55  88 W7        29.64R
DULUTH HARBOR  PTSUNNY   66  61  82 NW10      29.62S
TWO HARBORS    PTSUNNY   63  55  77 NW7       29.58F
SILVER BAY     CLOUDY    63  61  94 W5        29.57F
GRAND MARAIS     N/A     63  61  93 CALM      29.54F
G MARAIS ARPRT CLOUDY    61  55  82 W5        29.58S
$$
MNZ029>031-032-039>041-046>048-054>057-064-011600-
   West Central Minnesota

CITY           SKY/WX    TMP DP  RH WIND       PRES   REMARKS
FERGUS FALLS   MOSUNNY   63  59  88 N5        29.73R
WHEATON        SUNNY     63  57  82 NW7       29.76R
MORRIS         SUNNY     66  59  77 NW10      29.73R
ALEXANDRIA     SUNNY     66  58  75 NW12      29.74R
ELBOW LAKE     FAIR      63  58  86 NW7       29.73R
WADENA         SUNNY     63  57  82 NW7       29.71R
GLENWOOD       SUNNY     66  59  77 NW14      29.73R
APPLETON       SUNNY     68  57  68 W8        29.75R
BENSON         SUNNY     66  59  77 N8        29.74R
ORTONVILLE     SUNNY     66  57  72 NW10      29.75R
MADISON        SUNNY     70  61  73 NW9       29.76R
WILLMAR        FAIR      68  61  77 NW9       29.75R
$$
MNZ033>034-036-042>043-049>051-058-059-011600-
   Central Minnesota

CITY           SKY/WX    TMP DP  RH WIND       PRES   REMARKS
ST CLOUD       MOSUNNY   68  61  78 NW8       29.69R
PAYNESVILLE    MOSUNNY   65  60  84 W6        29.72R
AITKIN         PTSUNNY   64  57  77 NW3       29.67R
PINE RIVER     PTSUNNY   61  55  82 NW8       29.72R
BRAINERD       PTSUNNY   63  56  78 N14G22    29.69R
STAPLES        MOSUNNY   63  55  77 NW8       29.71R
LONG PRAIRIE   FAIR      64  55  72 W10       29.71S
LITTLE FALLS   SUNNY     64  55  72 W14       29.69R
LITCHFIELD     PTSUNNY   68  63  83 W9        29.72R
BUFFALO        PTSUNNY   67  61  79 W6        29.70R
MAPLE LAKE     MOSUNNY   68  64  86 W7        29.70R
$$
MNZ037-044-045-052-053-011600-
   East Central Minnesota

CITY           SKY/WX    TMP DP  RH WIND       PRES   REMARKS
PRINCETON      MOSUNNY   70  63  78 NW8       29.68R
MORA           MOSUNNY   63  61  94 NW8       29.68R
CAMBRIDGE      MOSUNNY   70  57  64 NW6       29.66R
RUSH CITY      PTSUNNY   66  61  83 NW3       29.67R
MOOSE LAKE     CLOUDY    64  59  82 NW3       29.64R
HINCKLEY       CLOUDY    66  61  82 NW6       29.66R
CLOQUET        PTSUNNY   64  57  77 W9        29.65R
MCGREGOR       PTSUNNY   63  59  88 NW10G16   29.67R
$$
MNZ071>073-080-081-089-090-097-098-011600-
   Southwest Minnesota

CITY           SKY/WX    TMP DP  RH WIND       PRES   REMARKS
MONTEVIDEO     SUNNY     70  64  83 N7        29.76R
GRANITE FALLS  MOSUNNY   67  60  76 NW8       29.76R
CANBY          SUNNY     68  59  71 NW8       29.78R
MARSHALL       SUNNY     68  57  68 N12       29.76R
REDWOOD FALLS  MOSUNNY   66  63  90 NW8       29.74R
OLIVIA         MOSUNNY   64  61  88 NW8       29.73R
PIPESTONE      PTSUNNY   64  61  88 NW8       29.80R
WINDOM         MOSUNNY   66  63  88 W7        29.77R
WORTHINGTON    MOSUNNY   66  61  82 W9        29.80R
JACKSON        CLOUDY    66  61  82 NW10      29.78R
TRACY          MOSUNNY   67  62  84 NW6       29.77R
SLAYTON        SUNNY     66  61  83 CALM      29.80R
$$
MNZ065>067-074>077-082>085-091>093-011600-
   South Central Minnesota

CITY           SKY/WX    TMP DP  RH WIND       PRES   REMARKS
MANKATO        PTSUNNY   66  61  82 W6        29.73R
NEW ULM        CLOUDY    66  66 100 W6        29.73R
ST JAMES       LGT RAIN  68  63  83 W6        29.76R
FAIRMONT       CLOUDY    66  61  82 NW9       29.75R
GLENCOE        CLOUDY    68  61  79 NW8       29.70R
FARIBAULT      PTSUNNY   70  63  78 W6        29.71R
OWATONNA       PTSUNNY   70  63  78 W6        29.71R
WASECA         CLOUDY    64  59  82 W8        29.74R
ALBERT LEA     MOSUNNY   70  64  83 NW3       29.72R
$$
MNZ078>079-086>088-094>096-011600-
   Southeast Minnesota

CITY           SKY/WX    TMP DP  RH WIND       PRES   REMARKS
ROCHESTER      CLOUDY    69  64  84 W8        29.72R
RED WING       MOSUNNY   72  66  83 W10       29.66R
STANTON        CLOUDY    69  64  82 W9        29.68R
DODGE CENTER   SUNNY     68  64  88 W8        29.71R
WINONA         PTSUNNY   70  64  83 W3        29.66S
AUSTIN         PTSUNNY   68  64  88 NW8       29.72R
PRESTON        CLOUDY    66  67 100 CALM      29.72R
$$
ABBREVIATIONS USED IN REMARKS
   TC - TEMPERATURES IN CELSIUS
  WCI - WIND CHILL INDEX
   HX - HEAT INDEX
  VSB - VISIBILITY
$$



USA.gov is the U.S. government's official web portal to all federal, state and local government web resources and services.